owner,sensor,date,latitude,longitude,vertical_datum,sea_water_practical_salinity,qcFlag 
SCCF RECON,ioos:station:SCCF:13:1,2011-11-01T00:00:00Z,26.5255,-82.0032,2.328,22.87,1111122 
SCCF RECON,ioos:station:SCCF:13:1,2011-11-01T01:00:00Z,26.5255,-82.0032,2.36,23.62,1111122 
SCCF RECON,ioos:station:SCCF:13:1,2011-11-01T02:00:00Z,26.5255,-82.0032,2.37,24.44,1111122 
SCCF RECON,ioos:station:SCCF:13:1,2011-11-01T03:00:00Z,26.5255,-82.0032,2.35,23.93,1111122 
SCCF RECON,ioos:station:SCCF:13:1,2011-11-01T04:00:00Z,26.5255,-82.0032,2.32,18.04,1111122 
SCCF RECON,ioos:station:SCCF:13:1,2011-11-01T05:00:00Z,26.5255,-82.0032,2.31,16.27,1111122 
SCCF RECON,ioos:station:SCCF:13:1,2011-11-01T06:00:00Z,26.5255,-82.0032,2.32,22.8,1111122 
SCCF RECON,ioos:station:SCCF:13:1,2011-11-01T07:00:00Z,26.5255,-82.0032,2.36,23.5,1111122 
SCCF RECON,ioos:station:SCCF:13:1,2011-11-01T08:00:00Z,26.5255,-82.0032,2.4,24.19,1111122 
SCCF RECON,ioos:station:SCCF:13:1,2011-11-01T09:00:00Z,26.5255,-82.0032,2.44,24.81,1111122 
SCCF RECON,ioos:station:SCCF:13:1,2011-11-01T10:00:00Z,26.5255,-82.0032,2.46,25.25,1111122 
SCCF RECON,ioos:station:SCCF:13:1,2011-11-01T11:00:00Z,26.5255,-82.0032,2.43,24.71,1111122 
SCCF RECON,ioos:station:SCCF:13:1,2011-11-01T12:00:00Z,26.5255,-82.0032,2.36,19.5,1111122 
SCCF RECON,ioos:station:SCCF:13:1,2011-11-01T13:00:00Z,26.5255,-82.0032,2.27,9.47,1111122 
SCCF RECON,ioos:station:SCCF:13:1,2011-11-01T14:00:00Z,26.5255,-82.0032,2.21,7.44,1111122 
SCCF RECON,ioos:station:SCCF:13:1,2011-11-01T15:00:00Z,26.5255,-82.0032,2.15,6.91,1111122 
SCCF RECON,ioos:station:SCCF:13:1,2011-11-01T16:00:00Z,26.5255,-82.0032,2.09,6.15,1111122 
SCCF RECON,ioos:station:SCCF:13:1,2011-11-01T17:00:00Z,26.5255,-82.0032,2.04,6.01,1111122 
SCCF RECON,ioos:station:SCCF:13:1,2011-11-01T18:00:00Z,26.5255,-82.0032,2.0,5.64,1111122 
SCCF RECON,ioos:station:SCCF:13:1,2011-11-01T19:00:00Z,26.5255,-82.0032,1.99,5.19,1111122 
SCCF RECON,ioos:station:SCCF:13:1,2011-11-01T20:00:00Z,26.5255,-82.0032,2.027,4.75,1111122 
SCCF RECON,ioos:station:SCCF:13:1,2011-11-01T21:00:00Z,26.5255,-82.0032,2.098,5.81,1111122 
SCCF RECON,ioos:station:SCCF:13:1,2011-11-01T22:00:00Z,26.5255,-82.0032,2.16,9.63,1111122 
SCCF RECON,ioos:station:SCCF:13:1,2011-11-01T23:00:00Z,26.5255,-82.0032,2.23,17.28,1111122 
SCCF RECON,ioos:station:SCCF:13:1,2011-11-02T00:00:00Z,26.5255,-82.0032,2.29,20.1,1111122 
SCCF RECON,ioos:station:SCCF:13:1,2011-11-02T01:00:00Z,26.5255,-82.0032,2.33,20.87,1111122 
SCCF RECON,ioos:station:SCCF:13:1,2011-11-02T02:00:00Z,26.5255,-82.0032,2.34,21.36,1111122 
SCCF RECON,ioos:station:SCCF:13:1,2011-11-02T03:00:00Z,26.5255,-82.0032,2.32,18.55,1111122 
SCCF RECON,ioos:station:SCCF:13:1,2011-11-02T04:00:00Z,26.5255,-82.0032,2.28,17.63,1111122 
SCCF RECON,ioos:station:SCCF:13:1,2011-11-02T05:00:00Z,26.5255,-82.0032,2.24,13.96,1111122 
SCCF RECON,ioos:station:SCCF:13:1,2011-11-02T06:00:00Z,26.5255,-82.0032,2.21,9.99,1111122 
SCCF RECON,ioos:station:SCCF:13:1,2011-11-02T07:00:00Z,26.5255,-82.0032,2.2,9.77,1111122 
SCCF RECON,ioos:station:SCCF:13:1,2011-11-02T08:00:00Z,26.5255,-82.0032,2.22,18.56,1111122 
SCCF RECON,ioos:station:SCCF:13:1,2011-11-02T09:00:00Z,26.5255,-82.0032,2.26,17.16,1111122 
SCCF RECON,ioos:station:SCCF:13:1,2011-11-02T10:00:00Z,26.5255,-82.0032,2.31,20.4,1111122 
SCCF RECON,ioos:station:SCCF:13:1,2011-11-02T11:00:00Z,26.5255,-82.0032,2.35,20.37,1111122 
SCCF RECON,ioos:station:SCCF:13:1,2011-11-02T12:00:00Z,26.5255,-82.0032,2.37,21.69,1111122 
SCCF RECON,ioos:station:SCCF:13:1,2011-11-02T13:00:00Z,26.5255,-82.0032,2.37,22.18,1111122 
SCCF RECON,ioos:station:SCCF:13:1,2011-11-02T14:00:00Z,26.5255,-82.0032,2.33,21.94,1111122 
SCCF RECON,ioos:station:SCCF:13:1,2011-11-02T15:00:00Z,26.5255,-82.0032,2.26,12.82,1111122 
SCCF RECON,ioos:station:SCCF:13:1,2011-11-02T16:00:00Z,26.5255,-82.0032,2.2,7.41,1111122 
SCCF RECON,ioos:station:SCCF:13:1,2011-11-02T17:00:00Z,26.5255,-82.0032,2.15,6.73,1111122 
SCCF RECON,ioos:station:SCCF:13:1,2011-11-02T18:00:00Z,26.5255,-82.0032,2.1,6.21,1111122 
SCCF RECON,ioos:station:SCCF:13:1,2011-11-02T19:00:00Z,26.5255,-82.0032,2.07,5.53,1111122 
SCCF RECON,ioos:station:SCCF:13:1,2011-11-02T20:00:00Z,26.5255,-82.0032,2.07,5.15,1111122 
SCCF RECON,ioos:station:SCCF:13:1,2011-11-02T21:00:00Z,26.5255,-82.0032,2.11,5.09,1111122 
SCCF RECON,ioos:station:SCCF:13:1,2011-11-02T22:00:00Z,26.5255,-82.0032,2.15,13.07,1111122 
SCCF RECON,ioos:station:SCCF:13:1,2011-11-02T23:00:00Z,26.5255,-82.0032,2.21,14.71,1111122 
SCCF RECON,ioos:station:SCCF:13:1,2011-11-03T00:00:00Z,26.5255,-82.0032,2.27,17.69,1111122 
SCCF RECON,ioos:station:SCCF:13:1,2011-11-03T01:00:00Z,26.5255,-82.0032,2.32,20.9,1111122 
SCCF RECON,ioos:station:SCCF:13:1,2011-11-03T02:00:00Z,26.5255,-82.0032,2.349,22.47,1111122 
SCCF RECON,ioos:station:SCCF:13:1,2011-11-03T03:00:00Z,26.5255,-82.0032,2.367,23.16,1111122 
SCCF RECON,ioos:station:SCCF:13:1,2011-11-03T04:00:00Z,26.5255,-82.0032,2.38,23.45,1111122 
SCCF RECON,ioos:station:SCCF:13:1,2011-11-03T05:00:00Z,26.5255,-82.0032,2.37,23.47,1111122 
SCCF RECON,ioos:station:SCCF:13:1,2011-11-03T06:00:00Z,26.5255,-82.0032,2.33,21.74,1111122 
SCCF RECON,ioos:station:SCCF:13:1,2011-11-03T07:00:00Z,26.5255,-82.0032,2.293,19.46,1111122 
SCCF RECON,ioos:station:SCCF:13:1,2011-11-03T08:00:00Z,26.5255,-82.0032,2.27,14.99,1111122 
SCCF RECON,ioos:station:SCCF:13:1,2011-11-03T09:00:00Z,26.5255,-82.0032,2.29,20.89,1111122 
SCCF RECON,ioos:station:SCCF:13:1,2011-11-03T10:00:00Z,26.5255,-82.0032,2.35,23.47,1111122 
SCCF RECON,ioos:station:SCCF:13:1,2011-11-03T11:00:00Z,26.5255,-82.0032,2.405,24.48,1111122 
SCCF RECON,ioos:station:SCCF:13:1,2011-11-03T12:00:00Z,26.5255,-82.0032,2.45,25.49,1111122 
SCCF RECON,ioos:station:SCCF:13:1,2011-11-03T13:00:00Z,26.5255,-82.0032,2.472,26.59,1111122 
SCCF RECON,ioos:station:SCCF:13:1,2011-11-03T14:00:00Z,26.5255,-82.0032,2.49,26.97,1111122 
SCCF RECON,ioos:station:SCCF:13:1,2011-11-03T15:00:00Z,26.5255,-82.0032,2.48,25.14,1111122 
SCCF RECON,ioos:station:SCCF:13:1,2011-11-03T16:00:00Z,26.5255,-82.0032,2.44,24.33,1111122 
SCCF RECON,ioos:station:SCCF:13:1,2011-11-03T17:00:00Z,26.5255,-82.0032,2.39,17.56,1111122 
SCCF RECON,ioos:station:SCCF:13:1,2011-11-03T18:00:00Z,26.5255,-82.0032,2.33,11.59,1111122 
SCCF RECON,ioos:station:SCCF:13:1,2011-11-03T19:00:00Z,26.5255,-82.0032,2.22,9.39,1111122 
SCCF RECON,ioos:station:SCCF:13:1,2011-11-03T20:00:00Z,26.5255,-82.0032,2.17,8.65,1111122 
SCCF RECON,ioos:station:SCCF:13:1,2011-11-03T21:00:00Z,26.5255,-82.0032,2.163,8.63,1111122 
SCCF RECON,ioos:station:SCCF:13:1,2011-11-03T22:00:00Z,26.5255,-82.0032,2.201,8.43,1111122 
SCCF RECON,ioos:station:SCCF:13:1,2011-11-03T23:00:00Z,26.5255,-82.0032,2.248,18.54,1111122 
SCCF RECON,ioos:station:SCCF:13:1,2011-11-04T00:00:00Z,26.5255,-82.0032,2.3,19.87,1111122 
SCCF RECON,ioos:station:SCCF:13:1,2011-11-04T01:00:00Z,26.5255,-82.0032,2.35,20.49,1111122 
SCCF RECON,ioos:station:SCCF:13:1,2011-11-04T02:00:00Z,26.5255,-82.0032,2.4,23.13,1111122 
SCCF RECON,ioos:station:SCCF:13:1,2011-11-04T03:00:00Z,26.5255,-82.0032,2.44,23.19,1111122 
SCCF RECON,ioos:station:SCCF:13:1,2011-11-04T04:00:00Z,26.5255,-82.0032,2.47,26.06,1111122 
SCCF RECON,ioos:station:SCCF:13:1,2011-11-04T05:00:00Z,26.5255,-82.0032,2.47,26.54,1111122 
SCCF RECON,ioos:station:SCCF:13:1,2011-11-04T06:00:00Z,26.5255,-82.0032,2.43,25.73,1111122 
SCCF RECON,ioos:station:SCCF:13:1,2011-11-04T07:00:00Z,26.5255,-82.0032,2.37,19.57,1111122 
SCCF RECON,ioos:station:SCCF:13:1,2011-11-04T08:00:00Z,26.5255,-82.0032,2.32,13.42,1111122 
SCCF RECON,ioos:station:SCCF:13:1,2011-11-04T09:00:00Z,26.5255,-82.0032,2.3,12.39,1111122 
SCCF RECON,ioos:station:SCCF:13:1,2011-11-04T10:00:00Z,26.5255,-82.0032,2.31,12.85,1111122 
SCCF RECON,ioos:station:SCCF:13:1,2011-11-04T11:00:00Z,26.5255,-82.0032,2.34,19.7,1111122 
SCCF RECON,ioos:station:SCCF:13:1,2011-11-04T12:00:00Z,26.5255,-82.0032,2.388,21.55,1111122 
SCCF RECON,ioos:station:SCCF:13:1,2011-11-04T13:00:00Z,26.5255,-82.0032,2.43,25.02,1111122 
SCCF RECON,ioos:station:SCCF:13:1,2011-11-04T14:00:00Z,26.5255,-82.0032,2.48,24.87,1111122 
SCCF RECON,ioos:station:SCCF:13:1,2011-11-04T15:00:00Z,26.5255,-82.0032,2.52,25.0,1111122 
SCCF RECON,ioos:station:SCCF:13:1,2011-11-04T16:00:00Z,26.5255,-82.0032,2.54,26.5,1111122 
SCCF RECON,ioos:station:SCCF:13:1,2011-11-04T17:00:00Z,26.5255,-82.0032,2.52,26.12,1111122 
SCCF RECON,ioos:station:SCCF:13:1,2011-11-04T18:00:00Z,26.5255,-82.0032,2.455,22.57,1111122 
SCCF RECON,ioos:station:SCCF:13:1,2011-11-04T19:00:00Z,26.5255,-82.0032,2.39,18.97,1111122 
SCCF RECON,ioos:station:SCCF:13:1,2011-11-04T20:00:00Z,26.5255,-82.0032,2.33,14.9,1111122 
SCCF RECON,ioos:station:SCCF:13:1,2011-11-04T21:00:00Z,26.5255,-82.0032,2.28,12.5,1111122 
SCCF RECON,ioos:station:SCCF:13:1,2011-11-04T22:00:00Z,26.5255,-82.0032,2.24,11.63,1111122 
SCCF RECON,ioos:station:SCCF:13:1,2011-11-04T23:00:00Z,26.5255,-82.0032,2.23,10.5,1111122 
SCCF RECON,ioos:station:SCCF:13:1,2011-11-05T00:00:00Z,26.5255,-82.0032,2.255,10.78,1111122 
SCCF RECON,ioos:station:SCCF:13:1,2011-11-05T01:00:00Z,26.5255,-82.0032,2.3,18.9,1111122 
SCCF RECON,ioos:station:SCCF:13:1,2011-11-05T02:00:00Z,26.5255,-82.0032,2.35,18.51,1111122 
SCCF RECON,ioos:station:SCCF:13:1,2011-11-05T03:00:00Z,26.5255,-82.0032,2.38,18.74,1111122 
SCCF RECON,ioos:station:SCCF:13:1,2011-11-05T04:00:00Z,26.5255,-82.0032,2.4,18.86,1111122 
SCCF RECON,ioos:station:SCCF:13:1,2011-11-05T05:00:00Z,26.5255,-82.0032,2.409,19.18,1111122 
SCCF RECON,ioos:station:SCCF:13:1,2011-11-05T06:00:00Z,26.5255,-82.0032,2.33,14.41,1111122 
SCCF RECON,ioos:station:SCCF:13:1,2011-11-05T07:00:00Z,26.5255,-82.0032,2.26,11.45,1111122 
SCCF RECON,ioos:station:SCCF:13:1,2011-11-05T08:00:00Z,26.5255,-82.0032,2.2,9.98,1111122 
SCCF RECON,ioos:station:SCCF:13:1,2011-11-05T09:00:00Z,26.5255,-82.0032,2.15,8.64,1111122 
SCCF RECON,ioos:station:SCCF:13:1,2011-11-05T10:00:00Z,26.5255,-82.0032,2.104,7.63,1111122 
SCCF RECON,ioos:station:SCCF:13:1,2011-11-05T11:00:00Z,26.5255,-82.0032,2.1,7.14,1111122 
SCCF RECON,ioos:station:SCCF:13:1,2011-11-05T12:00:00Z,26.5255,-82.0032,2.14,7.24,1111122 
SCCF RECON,ioos:station:SCCF:13:1,2011-11-05T13:00:00Z,26.5255,-82.0032,2.187,11.39,1111122 
SCCF RECON,ioos:station:SCCF:13:1,2011-11-05T14:00:00Z,26.5255,-82.0032,2.251,13.23,1111122 
SCCF RECON,ioos:station:SCCF:13:1,2011-11-05T15:00:00Z,26.5255,-82.0032,2.279,14.67,1111122 
SCCF RECON,ioos:station:SCCF:13:1,2011-11-05T16:00:00Z,26.5255,-82.0032,2.3,16.52,1111122 
SCCF RECON,ioos:station:SCCF:13:1,2011-11-05T17:00:00Z,26.5255,-82.0032,2.31,19.35,1111122 
SCCF RECON,ioos:station:SCCF:13:1,2011-11-05T18:00:00Z,26.5255,-82.0032,2.31,15.89,1111122 
SCCF RECON,ioos:station:SCCF:13:1,2011-11-05T19:00:00Z,26.5255,-82.0032,2.3,14.36,1111122 
SCCF RECON,ioos:station:SCCF:13:1,2011-11-05T20:00:00Z,26.5255,-82.0032,2.28,10.12,1111122 
SCCF RECON,ioos:station:SCCF:13:1,2011-11-05T21:00:00Z,26.5255,-82.0032,2.25,7.32,1111122 
SCCF RECON,ioos:station:SCCF:13:1,2011-11-05T22:00:00Z,26.5255,-82.0032,2.219,6.84,1111122 
SCCF RECON,ioos:station:SCCF:13:1,2011-11-05T23:00:00Z,26.5255,-82.0032,2.23,14.7,1111122 
SCCF RECON,ioos:station:SCCF:13:1,2011-11-06T00:00:00Z,26.5255,-82.0032,2.261,17.68,1111122 
SCCF RECON,ioos:station:SCCF:13:1,2011-11-06T01:00:00Z,26.5255,-82.0032,2.32,21.53,1111122 
SCCF RECON,ioos:station:SCCF:13:1,2011-11-06T02:00:00Z,26.5255,-82.0032,2.364,21.74,1111122 
SCCF RECON,ioos:station:SCCF:13:1,2011-11-06T03:00:00Z,26.5255,-82.0032,2.4,22.73,1111122 
SCCF RECON,ioos:station:SCCF:13:1,2011-11-06T04:00:00Z,26.5255,-82.0032,2.431,24.37,1111122 
SCCF RECON,ioos:station:SCCF:13:1,2011-11-06T05:00:00Z,26.5255,-82.0032,2.45,25.17,1111122 
SCCF RECON,ioos:station:SCCF:13:1,2011-11-06T06:00:00Z,26.5255,-82.0032,2.44,25.53,1111122 
SCCF RECON,ioos:station:SCCF:13:1,2011-11-06T07:00:00Z,26.5255,-82.0032,2.39,21.95,1111122 
SCCF RECON,ioos:station:SCCF:13:1,2011-11-06T08:00:00Z,26.5255,-82.0032,2.29,12.43,1111122 
SCCF RECON,ioos:station:SCCF:13:1,2011-11-06T09:00:00Z,26.5255,-82.0032,2.22,9.15,1111122 
SCCF RECON,ioos:station:SCCF:13:1,2011-11-06T10:00:00Z,26.5255,-82.0032,2.179,9.0,1111122 
SCCF RECON,ioos:station:SCCF:13:1,2011-11-06T11:00:00Z,26.5255,-82.0032,2.15,7.1,1111122 
SCCF RECON,ioos:station:SCCF:13:1,2011-11-06T12:00:00Z,26.5255,-82.0032,2.18,6.57,1111122 
SCCF RECON,ioos:station:SCCF:13:1,2011-11-06T13:00:00Z,26.5255,-82.0032,2.25,16.87,1111122 
SCCF RECON,ioos:station:SCCF:13:1,2011-11-06T14:00:00Z,26.5255,-82.0032,2.31,18.53,1111122 
SCCF RECON,ioos:station:SCCF:13:1,2011-11-06T15:00:00Z,26.5255,-82.0032,2.36,19.73,1111122 
SCCF RECON,ioos:station:SCCF:13:1,2011-11-06T16:00:00Z,26.5255,-82.0032,2.41,23.41,1111122 
SCCF RECON,ioos:station:SCCF:13:1,2011-11-06T17:00:00Z,26.5255,-82.0032,2.46,24.96,1111122 
SCCF RECON,ioos:station:SCCF:13:1,2011-11-06T18:00:00Z,26.5255,-82.0032,2.46,25.63,1111122 
SCCF RECON,ioos:station:SCCF:13:1,2011-11-06T19:00:00Z,26.5255,-82.0032,2.43,24.78,1111122 
SCCF RECON,ioos:station:SCCF:13:1,2011-11-06T20:00:00Z,26.5255,-82.0032,2.388,20.77,1111122 
SCCF RECON,ioos:station:SCCF:13:1,2011-11-06T21:00:00Z,26.5255,-82.0032,2.34,12.03,1111122 
SCCF RECON,ioos:station:SCCF:13:1,2011-11-06T22:00:00Z,26.5255,-82.0032,2.31,8.98,1111122 
SCCF RECON,ioos:station:SCCF:13:1,2011-11-06T23:00:00Z,26.5255,-82.0032,2.3,8.77,1111122 
SCCF RECON,ioos:station:SCCF:13:1,2011-11-07T00:00:00Z,26.5255,-82.0032,2.307,18.93,1111122 
SCCF RECON,ioos:station:SCCF:13:1,2011-11-07T01:00:00Z,26.5255,-82.0032,2.35,21.94,1111122 
SCCF RECON,ioos:station:SCCF:13:1,2011-11-07T02:00:00Z,26.5255,-82.0032,2.39,23.49,1111122 
SCCF RECON,ioos:station:SCCF:13:1,2011-11-07T03:00:00Z,26.5255,-82.0032,2.43,25.35,1111122 
SCCF RECON,ioos:station:SCCF:13:1,2011-11-07T04:00:00Z,26.5255,-82.0032,2.461,26.74,1111122 
SCCF RECON,ioos:station:SCCF:13:1,2011-11-07T05:00:00Z,26.5255,-82.0032,2.48,27.48,1111122 
SCCF RECON,ioos:station:SCCF:13:1,2011-11-07T06:00:00Z,26.5255,-82.0032,2.48,27.5,1111122 
SCCF RECON,ioos:station:SCCF:13:1,2011-11-07T07:00:00Z,26.5255,-82.0032,2.44,26.78,1111122 
SCCF RECON,ioos:station:SCCF:13:1,2011-11-07T08:00:00Z,26.5255,-82.0032,2.35,13.71,1111122 
SCCF RECON,ioos:station:SCCF:13:1,2011-11-07T09:00:00Z,26.5255,-82.0032,2.27,11.16,1111122 
SCCF RECON,ioos:station:SCCF:13:1,2011-11-07T10:00:00Z,26.5255,-82.0032,2.21,9.87,1111122 
SCCF RECON,ioos:station:SCCF:13:1,2011-11-07T11:00:00Z,26.5255,-82.0032,2.16,8.45,1111122 
SCCF RECON,ioos:station:SCCF:13:1,2011-11-07T12:00:00Z,26.5255,-82.0032,2.14,7.59,1111122 
SCCF RECON,ioos:station:SCCF:13:1,2011-11-07T13:00:00Z,26.5255,-82.0032,2.17,7.51,1111122 
SCCF RECON,ioos:station:SCCF:13:1,2011-11-07T14:00:00Z,26.5255,-82.0032,2.23,16.54,1111122 
SCCF RECON,ioos:station:SCCF:13:1,2011-11-07T15:00:00Z,26.5255,-82.0032,2.298,17.46,1111122 
SCCF RECON,ioos:station:SCCF:13:1,2011-11-07T16:00:00Z,26.5255,-82.0032,2.36,22.18,1111122 
SCCF RECON,ioos:station:SCCF:13:1,2011-11-07T17:00:00Z,26.5255,-82.0032,2.42,25.3,1111122 
SCCF RECON,ioos:station:SCCF:13:1,2011-11-07T18:00:00Z,26.5255,-82.0032,2.45,25.66,1111122 
SCCF RECON,ioos:station:SCCF:13:1,2011-11-07T19:00:00Z,26.5255,-82.0032,2.452,26.11,1111122 
SCCF RECON,ioos:station:SCCF:13:1,2011-11-07T20:00:00Z,26.5255,-82.0032,2.433,24.95,1111122 
SCCF RECON,ioos:station:SCCF:13:1,2011-11-07T21:00:00Z,26.5255,-82.0032,2.41,23.93,1111122 
SCCF RECON,ioos:station:SCCF:13:1,2011-11-07T22:00:00Z,26.5255,-82.0032,2.39,25.13,1111122 
SCCF RECON,ioos:station:SCCF:13:1,2011-11-07T23:00:00Z,26.5255,-82.0032,2.38,25.34,1111122 
SCCF RECON,ioos:station:SCCF:13:1,2011-11-08T00:00:00Z,26.5255,-82.0032,2.41,24.02,1111122 
SCCF RECON,ioos:station:SCCF:13:1,2011-11-08T01:00:00Z,26.5255,-82.0032,2.45,25.63,1111122 
SCCF RECON,ioos:station:SCCF:13:1,2011-11-08T02:00:00Z,26.5255,-82.0032,2.48,27.53,1111122 
SCCF RECON,ioos:station:SCCF:13:1,2011-11-08T03:00:00Z,26.5255,-82.0032,2.53,28.58,1111122 
SCCF RECON,ioos:station:SCCF:13:1,2011-11-08T04:00:00Z,26.5255,-82.0032,2.573,29.0,1111122 
SCCF RECON,ioos:station:SCCF:13:1,2011-11-08T05:00:00Z,26.5255,-82.0032,2.6,29.9,1111122 
SCCF RECON,ioos:station:SCCF:13:1,2011-11-08T06:00:00Z,26.5255,-82.0032,2.602,30.23,1111122 
SCCF RECON,ioos:station:SCCF:13:1,2011-11-08T07:00:00Z,26.5255,-82.0032,2.57,30.13,1111122 
SCCF RECON,ioos:station:SCCF:13:1,2011-11-08T08:00:00Z,26.5255,-82.0032,2.5,22.37,1111122 
SCCF RECON,ioos:station:SCCF:13:1,2011-11-08T09:00:00Z,26.5255,-82.0032,2.41,15.06,1111122 
SCCF RECON,ioos:station:SCCF:13:1,2011-11-08T10:00:00Z,26.5255,-82.0032,2.34,12.56,1111122 
SCCF RECON,ioos:station:SCCF:13:1,2011-11-08T11:00:00Z,26.5255,-82.0032,2.28,12.27,1111122 
SCCF RECON,ioos:station:SCCF:13:1,2011-11-08T12:00:00Z,26.5255,-82.0032,2.24,11.72,1111122 
SCCF RECON,ioos:station:SCCF:13:1,2011-11-08T13:00:00Z,26.5255,-82.0032,2.23,10.65,1111122 
SCCF RECON,ioos:station:SCCF:13:1,2011-11-08T14:00:00Z,26.5255,-82.0032,2.26,13.58,1111122 
SCCF RECON,ioos:station:SCCF:13:1,2011-11-08T15:00:00Z,26.5255,-82.0032,2.32,18.04,1111122 
SCCF RECON,ioos:station:SCCF:13:1,2011-11-08T16:00:00Z,26.5255,-82.0032,2.38,21.83,1111122 
SCCF RECON,ioos:station:SCCF:13:1,2011-11-08T17:00:00Z,26.5255,-82.0032,2.45,25.42,1111122 
SCCF RECON,ioos:station:SCCF:13:1,2011-11-08T18:00:00Z,26.5255,-82.0032,2.497,27.3,1111122 
SCCF RECON,ioos:station:SCCF:13:1,2011-11-08T19:00:00Z,26.5255,-82.0032,2.53,28.01,1111122 
SCCF RECON,ioos:station:SCCF:13:1,2011-11-08T20:00:00Z,26.5255,-82.0032,2.547,28.31,1111122 
SCCF RECON,ioos:station:SCCF:13:1,2011-11-08T21:00:00Z,26.5255,-82.0032,2.524,28.12,1111122 
SCCF RECON,ioos:station:SCCF:13:1,2011-11-08T22:00:00Z,26.5255,-82.0032,2.49,26.41,1111122 
SCCF RECON,ioos:station:SCCF:13:1,2011-11-08T23:00:00Z,26.5255,-82.0032,2.47,24.12,1111122 
SCCF RECON,ioos:station:SCCF:13:1,2011-11-09T00:00:00Z,26.5255,-82.0032,2.46,21.52,1111122 
SCCF RECON,ioos:station:SCCF:13:1,2011-11-09T01:00:00Z,26.5255,-82.0032,2.461,24.13,1111122 
SCCF RECON,ioos:station:SCCF:13:1,2011-11-09T02:00:00Z,26.5255,-82.0032,2.492,24.83,1111122 
SCCF RECON,ioos:station:SCCF:13:1,2011-11-09T03:00:00Z,26.5255,-82.0032,2.532,26.61,1111122 
SCCF RECON,ioos:station:SCCF:13:1,2011-11-09T04:00:00Z,26.5255,-82.0032,2.567,27.46,1111122 
SCCF RECON,ioos:station:SCCF:13:1,2011-11-09T05:00:00Z,26.5255,-82.0032,2.602,29.56,1111122 
SCCF RECON,ioos:station:SCCF:13:1,2011-11-09T06:00:00Z,26.5255,-82.0032,2.63,29.94,1111122 
SCCF RECON,ioos:station:SCCF:13:1,2011-11-09T07:00:00Z,26.5255,-82.0032,2.625,30.29,1111122 
SCCF RECON,ioos:station:SCCF:13:1,2011-11-09T08:00:00Z,26.5255,-82.0032,2.57,25.87,1111122 
SCCF RECON,ioos:station:SCCF:13:1,2011-11-09T09:00:00Z,26.5255,-82.0032,2.5,17.86,1111122 
SCCF RECON,ioos:station:SCCF:13:1,2011-11-09T10:00:00Z,26.5255,-82.0032,2.43,15.52,1111122 
SCCF RECON,ioos:station:SCCF:13:1,2011-11-09T11:00:00Z,26.5255,-82.0032,2.37,13.79,1111122 
SCCF RECON,ioos:station:SCCF:13:1,2011-11-09T12:00:00Z,26.5255,-82.0032,2.32,14.38,1111122 
SCCF RECON,ioos:station:SCCF:13:1,2011-11-09T13:00:00Z,26.5255,-82.0032,2.289,12.8,1111122 
SCCF RECON,ioos:station:SCCF:13:1,2011-11-09T14:00:00Z,26.5255,-82.0032,2.296,12.35,1111122 
SCCF RECON,ioos:station:SCCF:13:1,2011-11-09T15:00:00Z,26.5255,-82.0032,2.33,16.89,1111122 
SCCF RECON,ioos:station:SCCF:13:1,2011-11-09T16:00:00Z,26.5255,-82.0032,2.388,19.93,1111122 
SCCF RECON,ioos:station:SCCF:13:1,2011-11-09T17:00:00Z,26.5255,-82.0032,2.44,23.56,1111122 
SCCF RECON,ioos:station:SCCF:13:1,2011-11-09T18:00:00Z,26.5255,-82.0032,2.49,26.6,1111122 
SCCF RECON,ioos:station:SCCF:13:1,2011-11-09T19:00:00Z,26.5255,-82.0032,2.53,27.48,1111122 
SCCF RECON,ioos:station:SCCF:13:1,2011-11-09T20:00:00Z,26.5255,-82.0032,2.543,27.67,1111122 
SCCF RECON,ioos:station:SCCF:13:1,2011-11-09T21:00:00Z,26.5255,-82.0032,2.539,27.81,1111122 
SCCF RECON,ioos:station:SCCF:13:1,2011-11-09T22:00:00Z,26.5255,-82.0032,2.536,26.64,1111122 
SCCF RECON,ioos:station:SCCF:13:1,2011-11-09T23:00:00Z,26.5255,-82.0032,2.508,25.12,1111122 
SCCF RECON,ioos:station:SCCF:13:1,2011-11-10T00:00:00Z,26.5255,-82.0032,2.48,22.87,1111122 
SCCF RECON,ioos:station:SCCF:13:1,2011-11-10T01:00:00Z,26.5255,-82.0032,2.47,23.19,1111122 
SCCF RECON,ioos:station:SCCF:13:1,2011-11-10T02:00:00Z,26.5255,-82.0032,2.49,22.73,1111122 
SCCF RECON,ioos:station:SCCF:13:1,2011-11-10T03:00:00Z,26.5255,-82.0032,2.52,23.08,1111122 
SCCF RECON,ioos:station:SCCF:13:1,2011-11-10T04:00:00Z,26.5255,-82.0032,2.57,25.32,1111122 
SCCF RECON,ioos:station:SCCF:13:1,2011-11-10T05:00:00Z,26.5255,-82.0032,2.62,27.76,1111122 
SCCF RECON,ioos:station:SCCF:13:1,2011-11-10T06:00:00Z,26.5255,-82.0032,2.65,28.02,1111122 
SCCF RECON,ioos:station:SCCF:13:1,2011-11-10T07:00:00Z,26.5255,-82.0032,2.66,29.8,1111122 
SCCF RECON,ioos:station:SCCF:13:1,2011-11-10T08:00:00Z,26.5255,-82.0032,2.63,26.33,1111122 
SCCF RECON,ioos:station:SCCF:13:1,2011-11-10T09:00:00Z,26.5255,-82.0032,2.57,21.47,1111122 
SCCF RECON,ioos:station:SCCF:13:1,2011-11-10T10:00:00Z,26.5255,-82.0032,2.51,17.96,1111122 
SCCF RECON,ioos:station:SCCF:13:1,2011-11-10T11:00:00Z,26.5255,-82.0032,2.44,15.18,1111122 
SCCF RECON,ioos:station:SCCF:13:1,2011-11-10T12:00:00Z,26.5255,-82.0032,2.39,16.23,1111122 
SCCF RECON,ioos:station:SCCF:13:1,2011-11-10T13:00:00Z,26.5255,-82.0032,2.34,14.66,1111122 
SCCF RECON,ioos:station:SCCF:13:1,2011-11-10T14:00:00Z,26.5255,-82.0032,2.31,13.27,1111122 
SCCF RECON,ioos:station:SCCF:13:1,2011-11-10T15:00:00Z,26.5255,-82.0032,2.32,13.09,1111122 
SCCF RECON,ioos:station:SCCF:13:1,2011-11-10T16:00:00Z,26.5255,-82.0032,2.34,16.0,1111122 
SCCF RECON,ioos:station:SCCF:13:1,2011-11-10T17:00:00Z,26.5255,-82.0032,2.38,19.83,1111122 
SCCF RECON,ioos:station:SCCF:13:1,2011-11-10T18:00:00Z,26.5255,-82.0032,2.43,23.11,1111122 
SCCF RECON,ioos:station:SCCF:13:1,2011-11-10T19:00:00Z,26.5255,-82.0032,2.47,25.52,1111122 
SCCF RECON,ioos:station:SCCF:13:1,2011-11-10T20:00:00Z,26.5255,-82.0032,2.502,26.14,1111122 
SCCF RECON,ioos:station:SCCF:13:1,2011-11-10T21:00:00Z,26.5255,-82.0032,2.516,26.46,1111122 
SCCF RECON,ioos:station:SCCF:13:1,2011-11-10T22:00:00Z,26.5255,-82.0032,2.509,26.32,1111122 
SCCF RECON,ioos:station:SCCF:13:1,2011-11-10T23:00:00Z,26.5255,-82.0032,2.5,24.96,1111122 
SCCF RECON,ioos:station:SCCF:13:1,2011-11-11T00:00:00Z,26.5255,-82.0032,2.47,22.38,1111122 
SCCF RECON,ioos:station:SCCF:13:1,2011-11-11T01:00:00Z,26.5255,-82.0032,2.46,20.21,1111122 
SCCF RECON,ioos:station:SCCF:13:1,2011-11-11T02:00:00Z,26.5255,-82.0032,2.47,21.22,1111122 
SCCF RECON,ioos:station:SCCF:13:1,2011-11-11T03:00:00Z,26.5255,-82.0032,2.497,23.23,1111122 
SCCF RECON,ioos:station:SCCF:13:1,2011-11-11T04:00:00Z,26.5255,-82.0032,2.53,22.94,1111122 
SCCF RECON,ioos:station:SCCF:13:1,2011-11-11T05:00:00Z,26.5255,-82.0032,2.57,25.92,1111122 
SCCF RECON,ioos:station:SCCF:13:1,2011-11-11T06:00:00Z,26.5255,-82.0032,2.6,27.01,1111122 
SCCF RECON,ioos:station:SCCF:13:1,2011-11-11T07:00:00Z,26.5255,-82.0032,2.62,28.65,1111122 
SCCF RECON,ioos:station:SCCF:13:1,2011-11-11T08:00:00Z,26.5255,-82.0032,2.61,26.26,1111122 
SCCF RECON,ioos:station:SCCF:13:1,2011-11-11T09:00:00Z,26.5255,-82.0032,2.58,24.79,1111122 
SCCF RECON,ioos:station:SCCF:13:1,2011-11-11T10:00:00Z,26.5255,-82.0032,2.529,20.05,1111122 
SCCF RECON,ioos:station:SCCF:13:1,2011-11-11T11:00:00Z,26.5255,-82.0032,2.472,17.85,1111122 
SCCF RECON,ioos:station:SCCF:13:1,2011-11-11T12:00:00Z,26.5255,-82.0032,2.41,15.22,1111122 
SCCF RECON,ioos:station:SCCF:13:1,2011-11-11T13:00:00Z,26.5255,-82.0032,2.35,14.54,1111122 
SCCF RECON,ioos:station:SCCF:13:1,2011-11-11T14:00:00Z,26.5255,-82.0032,2.29,12.75,1111122 
SCCF RECON,ioos:station:SCCF:13:1,2011-11-11T15:00:00Z,26.5255,-82.0032,2.249,11.65,1111122 
SCCF RECON,ioos:station:SCCF:13:1,2011-11-11T16:00:00Z,26.5255,-82.0032,2.231,11.32,1111122 
SCCF RECON,ioos:station:SCCF:13:1,2011-11-11T17:00:00Z,26.5255,-82.0032,2.24,11.34,1111122 
SCCF RECON,ioos:station:SCCF:13:1,2011-11-11T18:00:00Z,26.5255,-82.0032,2.25,13.99,1111122 
SCCF RECON,ioos:station:SCCF:13:1,2011-11-11T19:00:00Z,26.5255,-82.0032,2.268,16.27,1111122 